User: anonymous   Login
Location: Antioch Baptist Church
(32.6696°N, 85.7327°W)
Time: 11:48:13
(UTC+00:00)
Language:

Cosmos 2233 Rocket - Orbit

View from above orbital plane
View from above orbital plane
View from above satellite
View from above satellite

Ground track
Ground track

The orbit data is extracted from the following two-line orbital elements,

1 22488U 93008B   20274.98646433  .00000144  00000-0  12806-3 0  9991
2 22488  82.9389 264.0518 0026890  96.9486 315.3605 13.77717405389744
Epoch (UTC): 30 September 2020 23:40:30
Eccentricity: 0.0026890
inclination: 82.9389°
perigee height: 952 km
apogee height: 992 km
right ascension of ascending node: 264.0518°
argument of perigee: 96.9486°
revolutions per day: 13.77717405
mean anomaly at epoch: 315.3605°
orbit number at epoch: 38974

The dashed part of the orbit path shows where the satellite is in the earth's shadow,  

DLR